Home > Weather > Tashkent > Past weeks

Flag for Uzbekistan Past Weather in Tashkent, Uzbekistan — Yesterday and Last 2 Weeks

Now
70 °F

Sunny.


Feels Like: 70 °F
Forecast: 70 / 91 °F
Wind: 12 mph from Northeast

Location: Tashkent

Current Time: May 31, 2016 at 7:07:13 AM

Latest Report: May 31, 2016 at 6:00 AM


Visibility: 10 mi

Pressure: 29.77 "Hg

Humidity: 46%

Dew Point: 48 °F

Location of TashkentLocation

Past Weather in Tashkent — Graph

°F

Tashkent Temperature Yesterday

Maximum temperature yesterday: 90 °F (at 3:00 PM)
Minimum temperature yesterday: 61 °F (at 5:00 AM)
Average temperature yesterday: 77 °F

High & Low Weather Summary for the Past Weeks

 TemperatureHumidityPressure
High93 °F (May 21, 2:00 PM)94% (May 16, 7:00 AM)30.07 "Hg (May 16, 7:00 AM)
Low57 °F (May 19, 4:00 AM)13% (May 30, 5:00 PM)29.62 "Hg (May 26, 1:30 AM)
Average75 °F49%29.85 "Hg
* Reported May 16 5:00 AM — May 31 5:30 AM, Tashkent, Weather by CustomWeather, © 2016

Note: Actual official high and low records may vary slightly from our data, if they occured in-between our weather recording intervals... More about our weather records

Advertising

Tashkent Weather History for the Previous 24 Hours

Scroll right to see more
 ConditionsComfort  
Time TempWeatherWind HumidityBarometerVisibility
5:30 AM
Tue, May 31
68 °FSunny.9 mph49%29.77 "Hg10 mi
5:00 AM68 °FSunny.10 mph49%29.77 "Hg10 mi
4:30 AM63 °FClear.8 mph59%29.77 "Hg10 mi
4:00 AM64 °FClear.9 mph56%29.77 "Hg10 mi
3:30 AM66 °FClear.10 mph52%29.77 "Hg10 mi
3:00 AM68 °FClear.10 mph49%29.77 "Hg10 mi
2:30 AM68 °FClear.9 mph49%29.77 "Hg10 mi
2:00 AM70 °FClear.9 mph46%29.77 "Hg10 mi
1:30 AM68 °FClear.9 mph49%29.77 "Hg10 mi
1:00 AM64 °FClear.7 mph60%29.77 "Hg10 mi
12:30 AM68 °FClear.7 mph53%29.80 "Hg10 mi
12:00 AM70 °FClear.8 mph50%29.80 "Hg10 mi
11:30 PM
Mon, May 30
70 °FClear.8 mph50%29.80 "Hg10 mi
11:00 PM72 °FClear.9 mph47%29.80 "Hg10 mi
10:30 PM72 °FClear.9 mph47%29.80 "Hg2 mi
10:00 PM75 °FClear.7 mph41%29.80 "Hg2 mi
9:30 PM79 °FClear.5 mph34%29.80 "Hg2 mi
9:00 PM79 °FClear.2 mph34%29.80 "Hg2 mi
8:30 PM81 °FClear.5 mph28%29.80 "Hg10 mi
8:00 PM82 °FClear.6 mph26%29.77 "Hg10 mi
7:30 PM82 °FSunny.5 mph23%29.77 "Hg10 mi
7:00 PM86 °FPassing clouds.3 mph13%29.77 "HgN/A
6:30 PM88 °FPassing clouds.5 mph13%29.77 "HgN/A
6:00 PM88 °FPassing clouds.7 mph13%29.77 "HgN/A
5:30 PM88 °FPassing clouds.6 mph13%29.77 "HgN/A
5:00 PM88 °FPassing clouds.7 mph13%29.77 "HgN/A
4:30 PM88 °FSunny.7 mph15%29.77 "Hg10 mi
4:00 PM88 °FPassing clouds.7 mph16%29.77 "HgN/A
3:30 PM88 °FPassing clouds.8 mph19%29.80 "HgN/A
3:00 PM90 °FSunny.6 mph20%29.80 "Hg10 mi
2:30 PM88 °FPassing clouds.7 mph21%29.80 "HgN/A
2:00 PM88 °FSunny.3 mph19%29.80 "Hg10 mi
1:30 PM86 °FSunny.7 mph24%29.80 "Hg10 mi
1:00 PM86 °FPassing clouds.6 mph22%29.80 "HgN/A
12:30 PM86 °FPassing clouds.7 mph24%29.80 "HgN/A
12:00 PM86 °FPassing clouds.6 mph24%29.83 "HgN/A
11:30 AM84 °FSunny.3 mph27%29.83 "Hg10 mi
11:00 AM82 °FSunny.6 mph28%29.83 "Hg10 mi
10:30 AM82 °FPassing clouds.7 mph30%29.83 "HgN/A
10:00 AM81 °FSunny.6 mph32%29.83 "Hg10 mi
9:30 AM81 °FSunny.3 mph34%29.83 "Hg10 mi
9:00 AM79 °FPassing clouds.5 mph34%29.83 "HgN/A
8:30 AM77 °FSunny.2 mph36%29.86 "Hg10 mi
8:00 AM75 °FSunny.3 mph39%29.86 "Hg10 mi
7:30 AM73 °FSunny.7 mph41%29.83 "Hg10 mi
7:00 AM70 °FSunny.7 mph46%29.83 "Hg10 mi
Weather by CustomWeather, © 2016

See weather overviewHow to use our weather pages